Location: Delettes
(50.6178°N, 2.2123°E)
Time: 18:33:19
(UTC+00:00)

USA 238 DEB - Pass Details

Date: 27 February 2020
Orbit: 1020 x 1192 km, 63.4° (Epoch: 12 March)

Event Time Altitude Azimuth Distance (km) Brightness Sun altitude
Rises 19:56:43 0° 315° (NW) 3,932 7.7 -24.1°
Reaches altitude 10° 19:59:21 10° 314° (NW) 2,996 6.9 -24.5°
Maximum altitude 20:06:30 74° 231° (SW) 1,197 3.9 -25.6°
Enters shadow 20:09:20 41° 158° (SSE) 1,635 4.3 -26.0°
